Location: Splawn
(30.9202°N, 96.9858°W)
Time: 14:23:35
(UTC+00:00)

Transit 2A Rocket - Pass Details

Date: 05 March 2020
Orbit: 588 x 915 km, 66.7° (Epoch: 07 April)

Event Time Altitude Azimuth Distance (km) Brightness Sun altitude
Rises 01:08:25 0° 195° (SSW) 2,805 8.1 -9.2°
Reaches altitude 10° 01:10:39 10° 191° (S) 1,903 7.2 -9.7°
Maximum altitude 01:14:48 57° 112° (ESE) 699 4.5 -10.6°
Drops below altitude 10° 01:19:05 10° 34° (NE) 1,965 6.8 -11.5°
Sets 01:21:26 0° 30° (NNE) 2,906 7.7 -12.0°
